period_start,C,m1,H,J0,J1,J2,J3,J4,J5,JA,JB,JC,JD,JJ,JK,JN,#
2015-10-17 00:01:22,0.02,0.74,0.00,20.22,25.97,29.79,14.75,47.88,1015.64,2040.98,3255.97,3085.97,3356.85,600.07,601.19,24.58,0000 0000 0000 0000 000000
2015-10-17 00:06:23,0.05,0.74,0.00,20.22,25.97,29.82,14.82,47.91,1015.64,2040.96,3255.10,3085.22,3356.05,600.45,601.49,24.63,0000 0000 0000 0000 000000
2015-10-17 00:11:25,0.02,0.74,0.00,20.22,25.95,29.78,14.80,47.92,1015.64,2040.98,3254.27,3085.00,3355.98,599.95,601.05,24.68,0000 0000 0000 0000 000000
2015-10-17 00:16:26,0.04,0.74,0.00,20.22,25.95,29.80,14.79,47.87,1015.64,2040.99,3253.63,3084.61,3355.46,600.04,601.17,24.73,0000 0000 0000 0000 000000
2015-10-17 00:21:27,0.01,0.75,0.00,20.21,25.93,29.82,14.78,47.77,1015.64,2040.99,3253.08,3084.06,3355.01,600.15,601.31,24.78,0000 0000 0000 0000 000000
2015-10-17 00:26:28,0.01,0.75,0.00,20.22,25.92,29.78,14.71,47.77,1015.64,2040.99,3252.83,3084.00,3354.77,599.87,601.02,24.83,0000 0000 0000 0000 000000
2015-10-17 00:31:29,0.04,0.75,0.00,20.22,25.92,29.81,14.81,47.85,1015.64,2040.99,3252.05,3083.56,3354.07,600.11,601.11,24.88,0000 0000 0000 0000 000000
2015-10-17 00:36:30,0.02,0.75,0.00,20.22,25.92,29.76,14.72,47.77,1015.64,2040.99,3251.24,3083.02,3353.95,599.68,600.78,24.93,0000 0000 0000 0000 000000
2015-10-17 00:41:31,0.01,0.75,0.00,20.24,25.92,29.78,14.84,47.75,1015.63,2040.99,3250.98,3082.96,3353.23,600.24,601.33,24.98,0000 0000 0000 0000 000000
2015-10-17 00:46:33,0.04,0.75,0.00,20.24,25.92,29.79,14.81,47.86,1015.62,2040.99,3250.20,3082.35,3353.04,600.32,601.30,25.03,0000 0000 0000 0000 000000
2015-10-17 00:51:34,0.00,0.75,0.00,20.25,25.92,29.75,14.72,47.85,1015.58,2040.99,3249.88,3082.00,3352.93,599.54,600.54,25.08,0000 0000 0000 0000 000000
2015-10-17 00:56:35,0.03,0.75,0.00,20.27,25.92,29.73,14.78,47.92,1015.48,2040.99,3249.04,3081.80,3352.26,600.19,601.11,25.13,0000 0000 0000 0000 000000
2015-10-17 01:01:36,0.02,0.76,0.00,20.27,25.92,29.76,14.79,47.96,1015.45,2041.00,3248.61,3081.09,3351.98,599.74,600.77,25.18,0000 0000 0000 0000 000000
2015-10-17 01:06:37,0.02,0.76,0.00,20.29,25.92,29.80,14.80,48.06,1015.57,2041.00,3248.10,3080.97,3351.26,600.09,600.98,25.23,0000 0000 0000 0000 000000
2015-10-17 01:11:38,0.06,0.76,0.00,20.29,25.94,29.74,14.81,48.02,1015.63,2041.00,3247.01,3080.11,3350.48,600.17,601.04,25.28,0000 0000 0000 0000 000000
2015-10-17 01:16:40,0.06,0.76,0.00,20.32,25.95,29.71,14.72,47.83,1015.63,2041.00,3245.73,3079.16,3349.72,599.96,600.96,25.33,0000 0000 0000 0000 000000
2015-10-17 01:21:41,0.06,0.77,0.00,20.32,25.95,29.79,14.75,47.89,1015.64,2041.00,3244.39,3078.32,3348.72,599.80,600.65,25.38,0000 0000 0000 0000 000000
2015-10-17 01:26:42,0.06,0.77,0.00,20.34,25.95,29.72,14.80,47.97,1015.64,2041.00,3242.92,3077.43,3347.83,600.15,600.88,25.43,0000 0000 0000 0000 000000
2015-10-17 01:31:43,0.06,0.77,0.00,20.36,25.96,29.73,14.76,47.76,1015.64,2041.00,3241.68,3076.51,3346.89,599.78,600.60,25.48,0000 0000 0000 0000 000000
2015-10-17 01:36:45,0.03,0.77,0.00,20.37,25.97,29.80,14.80,47.96,1015.64,2041.00,3240.80,3075.90,3346.04,600.01,600.80,25.53,0000 0000 0000 0000 000000
2015-10-17 01:41:46,0.04,0.78,0.00,20.38,25.98,29.72,14.76,47.88,1015.64,2041.00,3239.94,3075.09,3345.39,600.14,600.89,25.58,0000 0000 0000 0000 000000
2015-10-17 01:46:47,0.02,0.78,0.00,20.40,26.00,29.73,14.76,47.92,1015.63,2041.00,3239.08,3074.87,3344.99,600.00,600.78,25.63,0000 0000 0000 0000 000000
2015-10-17 01:51:49,0.05,0.78,0.00,20.42,26.00,29.66,14.77,47.88,1015.59,2041.00,3238.24,3074.07,3344.32,600.20,600.90,25.68,0000 0000 0000 0000 000000
2015-10-17 01:56:50,0.03,0.78,0.00,20.43,26.02,29.67,14.78,47.92,1015.50,2041.00,3237.33,3073.58,3343.87,600.46,600.85,25.73,0000 0000 0000 0000 000000
2015-10-17 02:01:51,0.02,0.78,0.00,20.45,26.02,29.75,14.71,47.84,1015.54,2040.99,3236.87,3072.99,3342.99,600.11,600.66,25.78,0000 0000 0000 0000 000000
2015-10-17 02:06:52,0.06,0.79,0.00,20.47,26.03,29.70,14.66,47.84,1015.61,2040.97,3235.79,3072.15,3342.10,599.71,600.31,25.83,0000 0000 0000 0000 000000
2015-10-17 02:11:53,0.06,0.79,0.00,20.48,26.05,29.69,14.73,47.92,1015.63,2040.97,3234.56,3071.39,3341.32,600.17,600.72,25.88,0000 0000 0000 0000 000000
2015-10-17 02:16:54,0.01,0.79,0.00,20.49,26.05,29.70,14.75,47.87,1015.61,2040.87,3233.55,3070.91,3340.59,600.02,600.54,25.93,0000 0000 0000 0000 000000
2015-10-17 02:21:56,0.06,0.79,0.00,20.51,26.06,29.69,14.80,47.83,1015.58,2040.88,3232.60,3070.15,3339.97,600.56,601.15,25.98,0000 0000 0000 0000 000000
2015-10-17 02:26:57,0.05,0.79,0.00,20.53,26.07,29.66,14.66,47.83,1015.40,2040.89,3231.72,3069.64,3339.17,599.88,600.30,26.03,0000 0000 0000 0000 000000
2015-10-17 02:31:58,0.03,0.80,0.00,20.54,26.07,29.66,14.78,47.98,1015.26,2040.83,3230.73,3068.98,3338.57,600.00,600.13,26.08,0000 0000 0000 0000 000000
2015-10-17 02:36:59,0.04,0.80,0.00,20.57,26.09,29.65,14.62,47.60,1015.20,2040.78,3229.54,3068.15,3337.92,599.98,600.02,26.13,0000 0000 0000 0000 000000
2015-10-17 02:42:01,0.03,0.80,0.00,20.59,26.10,29.67,14.76,47.58,1015.19,2040.74,3228.84,3067.83,3337.12,600.11,600.19,26.18,0000 0000 0000 0000 000000
2015-10-17 02:47:02,0.02,0.80,0.00,20.61,26.11,29.68,14.71,47.62,1015.18,2040.62,3228.08,3067.09,3336.70,599.99,600.14,26.23,0000 0000 0000 0000 000000
2015-10-17 02:52:02,0.01,0.80,0.00,20.63,26.12,29.69,14.76,47.83,1015.17,2040.25,3227.50,3066.64,3336.01,599.95,599.99,26.28,0000 0000 0000 0000 000000
2015-10-17 02:57:03,0.02,0.80,0.00,20.64,26.12,29.71,14.73,47.83,1015.17,2040.10,3226.55,3066.01,3335.23,600.04,599.97,26.33,0000 0000 0000 0000 000000
2015-10-17 03:02:04,0.05,0.81,0.00,20.67,26.14,29.72,14.70,47.77,1015.17,2040.09,3225.63,3065.24,3334.74,600.09,600.09,26.38,0000 0000 0000 0000 000000
2015-10-17 03:07:06,0.02,0.81,0.00,20.68,26.15,29.72,14.68,47.83,1015.17,2040.13,3224.75,3064.94,3334.03,599.95,599.77,26.43,0000 0000 0000 0000 000000
2015-10-17 03:12:07,0.04,0.81,0.00,20.71,26.16,29.75,14.67,47.77,1015.17,2040.11,3224.04,3064.17,3333.56,599.70,599.54,26.48,0000 0000 0000 0000 000000
2015-10-17 03:17:08,0.01,0.81,0.00,20.73,26.17,29.72,14.68,47.78,1015.17,2040.02,3223.49,3063.95,3333.00,599.80,599.58,26.53,0000 0000 0000 0000 000000
2015-10-17 03:22:10,0.03,0.81,0.00,20.75,26.19,29.72,14.75,47.77,1015.18,2040.00,3222.96,3063.26,3332.41,600.30,600.02,26.58,0000 0000 0000 0000 000000
2015-10-17 03:27:11,0.02,0.81,0.00,20.73,26.20,29.74,14.69,47.68,1015.18,2040.00,3222.13,3062.98,3332.00,599.85,599.78,26.63,0000 0000 0000 0000 000000
2015-10-17 03:32:12,0.04,0.81,0.00,20.73,26.21,29.73,14.73,47.68,1015.19,2040.00,3221.74,3062.41,3331.52,600.20,599.91,26.68,0000 0000 0000 0000 000000
2015-10-17 03:37:13,0.02,0.82,0.00,20.76,26.22,29.73,14.73,47.93,1015.20,2040.00,3221.02,3062.00,3331.00,599.90,599.66,26.73,0000 0000 0000 0000 000000
2015-10-17 03:42:15,0.04,0.82,0.00,20.78,26.24,29.78,14.69,47.76,1015.21,2040.00,3220.35,3061.63,3330.54,600.30,599.97,26.79,0000 0000 0000 0000 000000
2015-10-17 03:47:16,0.02,0.82,0.00,20.81,26.25,29.78,14.76,47.87,1015.31,2040.00,3219.76,3061.02,3330.00,600.27,599.94,26.84,0000 0000 0000 0000 000000
2015-10-17 03:52:18,0.05,0.82,0.00,20.80,26.27,29.78,14.74,47.81,1015.40,2039.99,3218.73,3060.39,3329.31,600.08,599.72,26.89,0000 0000 0000 0000 000000
2015-10-17 03:57:19,0.03,0.82,0.00,20.81,26.28,29.83,14.70,47.89,1015.39,2039.99,3217.79,3059.84,3328.72,599.81,599.59,26.94,0000 0000 0000 0000 000000
2015-10-17 04:02:21,0.03,0.83,0.00,20.83,26.30,29.84,14.70,47.79,1015.56,2039.98,3216.95,3059.05,3328.01,599.75,599.57,26.99,0000 0000 0000 0000 000000
2015-10-17 04:07:22,0.05,0.83,0.00,20.86,26.32,29.86,14.63,47.85,1015.52,2039.98,3215.99,3058.42,3327.26,599.61,599.40,27.04,0000 0000 0000 0000 000000
2015-10-17 04:12:23,0.04,0.83,0.00,20.89,26.34,29.85,14.73,47.88,1015.52,2039.93,3214.97,3057.70,3326.44,600.04,599.65,27.09,0000 0000 0000 0000 000000
2015-10-17 04:17:25,0.02,0.83,0.00,20.89,26.35,29.89,14.74,47.84,1015.53,2039.70,3213.99,3056.97,3325.70,600.22,599.94,27.14,0000 0000 0000 0000 000000
2015-10-17 04:22:26,0.01,0.83,0.00,20.89,26.37,29.88,14.67,47.89,1015.50,2039.35,3213.05,3056.14,3324.87,600.08,599.76,27.19,0000 0000 0000 0000 000000
2015-10-17 04:27:27,0.03,0.83,0.00,20.91,26.39,29.91,14.75,47.96,1015.49,2039.15,3212.13,3055.60,3324.05,600.12,599.70,27.24,0000 0000 0000 0000 000000
2015-10-17 04:32:28,0.03,0.84,0.00,20.93,26.40,29.95,14.70,47.74,1015.54,2039.04,3211.29,3054.97,3323.51,600.30,599.96,27.29,0000 0000 0000 0000 000000
2015-10-17 04:37:30,0.05,0.84,0.00,20.96,26.42,29.92,14.67,47.87,1015.59,2039.06,3210.42,3054.18,3322.92,599.70,599.24,27.34,0000 0000 0000 0000 000000
2015-10-17 04:42:31,0.03,0.84,0.00,20.95,26.43,29.95,14.78,47.93,1015.55,2039.04,3209.57,3053.70,3322.10,600.25,599.88,27.39,0000 0000 0000 0000 000000
2015-10-17 04:47:32,0.03,0.84,0.00,20.94,26.45,29.97,14.65,47.88,1015.60,2039.01,3208.70,3053.01,3321.42,600.06,599.56,27.44,0000 0000 0000 0000 000000
2015-10-17 04:52:33,0.04,0.84,0.00,20.96,26.46,30.04,14.68,47.94,1015.61,2039.00,3207.89,3052.31,3320.82,600.12,599.66,27.49,0000 0000 0000 0000 000000
2015-10-17 04:57:35,0.03,0.85,0.00,20.98,26.47,30.04,14.68,47.78,1015.62,2039.00,3206.98,3051.85,3320.04,599.96,599.46,27.54,0000 0000 0000 0000 000000
2015-10-17 05:02:36,0.04,0.85,0.00,20.98,26.49,30.09,14.77,47.83,1015.64,2039.00,3206.18,3051.07,3319.38,600.00,599.57,27.59,0000 0000 0000 0000 000000
2015-10-17 05:07:38,0.02,0.85,0.00,20.97,26.50,30.07,14.66,48.00,1015.62,2039.00,3205.48,3050.79,3318.99,599.97,599.53,27.64,0000 0000 0000 0000 000000
2015-10-17 05:12:39,0.04,0.85,0.00,20.97,26.51,30.09,14.73,48.00,1015.59,2038.99,3204.75,3050.05,3318.22,600.11,599.69,27.69,0000 0000 0000 0000 000000
2015-10-17 05:17:40,0.03,0.85,0.00,20.98,26.52,30.09,14.69,47.92,1015.48,2038.98,3204.02,3049.56,3317.81,599.98,599.33,27.74,0000 0000 0000 0000 000000
2015-10-17 05:22:42,0.03,0.86,0.00,21.00,26.54,30.11,14.74,47.90,1015.42,2038.98,3203.16,3048.90,3317.00,600.06,599.43,27.79,0000 0000 0000 0000 000000
2015-10-17 05:27:43,0.05,0.86,0.00,21.02,26.55,30.13,14.69,47.94,1015.43,2038.93,3202.14,3048.07,3316.10,599.94,599.22,27.84,0000 0000 0000 0000 000000
2015-10-17 05:32:45,0.03,0.86,0.00,21.01,26.55,30.15,14.80,47.85,1015.48,2038.77,3201.23,3047.48,3315.39,600.34,599.67,27.89,0000 0000 0000 0000 000000
2015-10-17 05:37:46,0.03,0.86,0.00,20.99,26.57,30.16,14.69,47.85,1015.48,2038.65,3200.33,3046.84,3314.76,599.76,599.27,27.94,0000 0000 0000 0000 000000
2015-10-17 05:42:47,0.01,0.86,0.00,21.00,26.57,30.17,14.66,47.86,1015.52,2038.37,3199.31,3046.06,3314.02,600.03,599.51,27.99,0000 0000 0000 0000 000000
2015-10-17 05:47:48,0.05,0.86,0.00,21.02,26.57,30.24,14.69,47.88,1015.59,2038.43,3198.74,3045.75,3313.42,600.27,599.80,28.04,0000 0000 0000 0000 000000
2015-10-17 05:52:49,0.01,0.87,0.00,21.04,26.58,30.18,14.74,47.83,1015.64,2038.43,3198.05,3045.07,3313.00,600.12,599.56,28.09,0000 0000 0000 0000 000000
2015-10-17 05:57:51,-0.00,0.87,0.00,21.03,26.60,30.19,14.68,47.89,1015.64,2038.14,3197.59,3044.92,3312.46,599.96,599.51,28.14,0000 0000 0000 0000 000000
2015-10-17 06:02:52,0.02,0.87,0.00,20.99,26.60,30.22,14.77,47.90,1015.64,2038.05,3197.01,3044.15,3312.01,600.07,599.65,28.19,0000 0000 0000 0000 000000
2015-10-17 06:07:53,0.02,0.87,0.00,20.99,26.60,30.25,14.76,47.90,1015.64,2038.06,3196.47,3044.00,3311.84,600.44,599.96,28.24,0000 0000 0000 0000 000000
2015-10-17 06:12:55,0.02,0.87,0.00,21.01,26.61,30.28,14.66,47.98,1015.64,2038.06,3196.00,3043.82,3311.13,599.94,599.39,28.29,0000 0000 0000 0000 000000
2015-10-17 06:17:56,0.03,0.87,0.00,21.02,26.62,30.25,14.70,47.84,1015.62,2038.03,3195.32,3043.07,3310.94,600.27,599.70,28.34,0000 0000 0000 0000 000000
2015-10-17 06:22:57,0.02,0.87,0.00,21.01,26.62,30.29,14.65,47.85,1015.62,2038.00,3194.98,3042.79,3310.11,599.87,599.32,28.39,0000 0000 0000 0000 000000
2015-10-17 06:27:59,0.05,0.88,0.00,20.99,26.62,30.29,14.69,47.87,1015.60,2038.00,3194.13,3042.05,3309.48,599.82,599.32,28.44,0000 0000 0000 0000 000000
2015-10-17 06:33:00,0.04,0.88,0.00,20.98,26.62,30.29,14.70,47.91,1015.56,2038.00,3193.11,3041.46,3308.84,599.76,599.30,28.49,0000 0000 0000 0000 000000
2015-10-17 06:38:01,0.05,0.88,0.00,20.98,26.62,30.32,14.78,47.92,1015.62,2038.00,3192.06,3040.66,3307.90,600.26,599.88,28.54,0000 0000 0000 0000 000000
2015-10-17 06:43:02,0.05,0.88,0.00,20.99,26.62,30.40,14.78,47.89,1015.64,2038.00,3190.71,3039.92,3307.04,600.17,599.58,28.59,0000 0000 0000 0000 000000
2015-10-17 06:48:04,0.05,0.89,0.00,20.99,26.62,30.36,14.63,47.73,1015.64,2038.00,3189.76,3039.10,3306.30,599.47,599.07,28.64,0000 0000 0000 0000 000000
2015-10-17 06:53:05,0.05,0.89,0.00,20.97,26.62,30.36,14.76,47.73,1015.64,2038.00,3188.85,3038.38,3305.63,599.98,599.56,28.69,0000 0000 0000 0000 000000
2015-10-17 06:58:06,0.02,0.89,0.00,20.94,26.61,30.40,14.76,47.82,1015.64,2038.00,3188.00,3037.90,3304.92,599.92,599.46,28.74,0000 0000 0000 0000 000000
2015-10-17 07:03:08,0.05,0.89,0.00,20.94,26.60,30.46,14.73,47.77,1015.64,2037.99,3187.10,3037.11,3304.13,599.66,599.38,28.79,0000 0000 0000 0000 000000
2015-10-17 07:08:09,0.02,0.89,0.00,20.94,26.60,30.44,14.79,47.88,1015.64,2037.99,3186.22,3036.85,3303.93,600.08,599.73,28.84,0000 0000 0000 0000 000000
2015-10-17 07:13:10,0.05,0.90,0.00,20.94,26.60,30.45,14.73,47.80,1015.64,2037.99,3185.22,3036.06,3303.22,599.96,599.59,28.89,0000 0000 0000 0000 000000
2015-10-17 07:18:12,0.01,0.90,0.00,20.94,26.58,30.45,14.67,47.71,1015.65,2038.01,3184.65,3035.94,3302.97,600.06,599.69,28.94,0000 0000 0000 0000 000000
2015-10-17 07:23:13,0.04,0.90,0.00,20.95,26.57,30.39,14.74,47.83,1015.65,2038.01,3184.01,3035.20,3302.28,600.32,599.87,28.99,0000 0000 0000 0000 000000
2015-10-17 07:28:15,0.02,0.90,0.00,20.97,26.57,30.43,14.73,47.86,1015.65,2038.01,3183.38,3034.99,3301.99,599.82,599.42,29.04,0000 0000 0000 0000 000000
2015-10-17 07:33:16,0.03,0.90,0.00,20.97,26.57,30.37,14.70,47.83,1015.66,2038.01,3182.96,3034.52,3301.36,599.71,599.23,29.09,0000 0000 0000 0000 000000
2015-10-17 07:38:17,0.03,0.90,0.00,20.94,26.57,30.42,14.78,47.77,1015.69,2038.01,3182.15,3033.98,3300.68,600.15,599.85,29.14,0000 0000 0000 0000 000000
2015-10-17 07:43:18,0.05,0.91,0.00,20.92,26.57,30.43,14.78,47.77,1015.74,2038.02,3181.22,3033.22,3300.01,600.23,599.80,29.19,0000 0000 0000 0000 000000
2015-10-17 07:48:19,0.03,0.91,0.00,20.92,26.56,30.46,14.75,47.87,1015.76,2038.00,3180.40,3032.91,3299.39,599.78,599.59,29.24,0000 0000 0000 0000 000000
2015-10-17 07:53:21,0.04,0.91,0.00,20.92,26.55,30.43,14.70,47.88,1015.83,2038.00,3179.59,3032.10,3298.90,599.81,599.59,29.29,0000 0000 0000 0000 000000
2015-10-17 07:58:22,0.03,0.91,0.00,20.92,26.55,30.46,14.73,47.91,1015.71,2038.01,3178.77,3031.88,3298.11,599.90,599.63,29.34,0000 0000 0000 0000 000000
2015-10-17 08:03:23,0.03,0.91,0.00,20.90,26.55,30.43,14.76,47.86,1015.70,2038.02,3177.91,3031.11,3297.84,600.09,599.86,29.39,0000 0000 0000 0000 000000
2015-10-17 08:08:24,0.04,0.92,0.00,20.89,26.54,30.43,14.69,47.85,1015.73,2038.05,3177.06,3030.74,3297.08,599.97,599.80,29.44,0000 0000 0000 0000 000000
2015-10-17 08:13:26,0.03,0.92,0.00,20.86,26.52,30.41,14.83,47.87,1015.78,2038.08,3176.29,3030.06,3296.83,600.29,600.12,29.49,0000 0000 0000 0000 000000
2015-10-17 08:18:27,0.04,0.92,0.00,20.82,26.52,30.40,14.70,47.75,1015.77,2038.20,3175.53,3029.89,3296.11,599.88,599.82,29.54,0000 0000 0000 0000 000000
2015-10-17 08:23:28,0.04,0.92,0.00,20.81,26.52,30.38,14.75,47.92,1015.74,2038.18,3174.67,3029.09,3295.73,599.91,599.79,29.59,0000 0000 0000 0000 000000
2015-10-17 08:28:29,0.06,0.92,0.00,20.81,26.50,30.40,14.77,47.73,1015.82,2038.26,3173.60,3028.39,3294.92,599.94,599.89,29.64,0000 0000 0000 0000 000000
2015-10-17 08:33:30,0.06,0.93,0.00,20.79,26.50,30.35,14.76,47.86,1016.05,2038.37,3172.55,3027.78,3294.07,600.13,600.35,29.69,0000 0000 0000 0000 000000
2015-10-17 08:38:32,0.06,0.93,0.00,20.78,26.50,30.37,14.70,47.77,1016.08,2038.65,3171.63,3027.05,3293.44,599.76,600.09,29.74,0000 0000 0000 0000 000000
2015-10-17 08:43:33,0.02,0.93,0.00,20.75,26.50,30.38,14.78,47.78,1016.11,2038.68,3171.00,3026.58,3292.97,600.03,600.31,29.79,0000 0000 0000 0000 000000
2015-10-17 08:48:34,0.04,0.94,0.00,20.73,26.48,30.40,14.81,47.89,1016.13,2038.76,3170.24,3026.03,3292.34,600.32,600.70,29.84,0000 0000 0000 0000 000000
2015-10-17 08:53:35,0.02,0.94,0.00,20.72,26.47,30.37,14.74,47.87,1016.13,2038.80,3169.68,3025.75,3291.99,599.90,600.36,29.89,0000 0000 0000 0000 000000
2015-10-17 08:58:36,0.05,0.94,0.00,20.72,26.47,30.34,14.79,47.93,1016.13,2038.82,3168.75,3025.03,3291.20,600.35,600.72,29.94,0000 0000 0000 0000 000000
2015-10-17 09:03:37,0.06,0.94,0.00,20.70,26.47,30.33,14.82,47.91,1016.13,2038.94,3167.75,3024.39,3290.63,600.17,600.64,29.99,0000 0000 0000 0000 000000
2015-10-17 09:08:39,0.04,0.94,0.00,20.69,26.46,30.33,14.70,47.84,1016.13,2038.98,3166.61,3023.77,3289.92,599.90,600.31,30.04,0000 0000 0000 0000 000000
2015-10-17 09:13:40,0.04,0.95,0.00,20.64,26.45,30.34,14.77,47.98,1016.13,2038.96,3165.58,3023.01,3289.07,599.97,600.41,30.09,0000 0000 0000 0000 000000
2015-10-17 09:18:41,0.05,0.95,0.00,20.62,26.45,30.28,14.70,47.83,1016.13,2038.97,3164.58,3022.22,3288.29,599.99,600.56,30.14,0000 0000 0000 0000 000000
2015-10-17 09:23:42,0.04,0.95,0.00,20.62,26.44,30.26,14.81,47.93,1016.13,2038.98,3163.70,3021.74,3287.72,600.03,600.67,30.19,0000 0000 0000 0000 000000
2015-10-17 09:28:43,0.03,0.95,0.00,20.60,26.42,30.26,14.74,47.96,1016.13,2038.98,3162.73,3021.02,3287.01,599.75,600.45,30.24,0000 0000 0000 0000 000000
2015-10-17 09:33:44,0.04,0.96,0.00,20.59,26.42,30.24,14.76,48.04,1016.13,2038.99,3161.91,3020.44,3286.31,600.21,600.78,30.30,0000 0000 0000 0000 000000
2015-10-17 09:38:45,0.02,0.96,0.00,20.59,26.41,30.22,14.70,47.88,1016.07,2038.99,3161.04,3019.99,3285.92,600.00,600.59,30.35,0000 0000 0000 0000 000000
2015-10-17 09:43:47,0.05,0.96,0.00,20.59,26.40,30.22,14.67,47.88,1016.03,2038.99,3160.13,3019.19,3285.10,599.73,600.31,30.40,0000 0000 0000 0000 000000
2015-10-17 09:48:48,0.01,0.96,0.00,20.56,26.40,30.23,14.71,48.00,1016.08,2038.99,3159.38,3018.98,3284.88,599.66,600.43,30.45,0000 0000 0000 0000 000000
2015-10-17 09:53:49,0.05,0.96,0.00,20.54,26.38,30.18,14.82,48.00,1016.04,2038.99,3158.54,3018.19,3284.07,600.26,600.80,30.50,0000 0000 0000 0000 000000
2015-10-17 09:58:50,0.01,0.97,0.00,20.52,26.37,30.21,14.80,47.94,1016.01,2039.01,3157.99,3017.96,3283.57,600.19,600.92,30.55,0000 0000 0000 0000 000000
2015-10-17 10:03:51,0.04,0.97,0.00,20.52,26.36,30.20,14.68,47.97,1016.01,2039.00,3157.32,3017.33,3283.02,599.75,600.51,30.60,0000 0000 0000 0000 000000
2015-10-17 10:08:53,0.01,0.97,0.00,20.52,26.35,30.13,14.75,47.98,1015.98,2039.02,3156.99,3017.01,3282.98,599.84,600.57,30.65,0000 0000 0000 0000 000000
2015-10-17 10:13:54,0.02,0.97,0.00,20.52,26.35,30.13,14.82,48.00,1015.95,2039.02,3156.41,3016.99,3282.52,600.21,601.12,30.70,0000 0000 0000 0000 000000
2015-10-17 10:18:55,0.02,0.97,0.00,20.52,26.33,30.13,14.81,47.99,1016.03,2039.05,3156.01,3016.73,3282.03,599.97,600.70,30.75,0000 0000 0000 0000 000000
2015-10-17 10:23:56,0.03,0.97,0.00,20.51,26.32,30.08,14.75,48.05,1015.92,2039.03,3155.41,3016.06,3281.99,600.05,600.62,30.80,0000 0000 0000 0000 000000
2015-10-17 10:28:58,0.04,0.97,0.00,20.51,26.32,30.07,14.81,48.04,1015.93,2039.37,3155.01,3016.00,3281.91,600.34,600.99,30.85,0000 0000 0000 0000 000000
2015-10-17 10:33:59,0.02,0.98,0.00,20.50,26.30,30.04,14.66,48.09,1015.76,2039.59,3154.95,3016.00,3281.19,599.84,600.47,30.90,0000 0000 0000 0000 000000
2015-10-17 10:39:00,0.04,0.98,0.00,20.50,26.30,30.05,14.68,48.20,1015.68,2039.70,3154.14,3015.46,3281.00,600.00,600.62,30.95,0000 0000 0000 0000 000000
2015-10-17 10:44:02,0.02,0.98,0.00,20.49,26.30,30.05,14.71,48.19,1015.67,2039.87,3153.93,3015.05,3280.92,599.89,600.45,31.00,0000 0000 0000 0000 000000
2015-10-17 10:49:03,0.03,0.98,0.00,20.49,26.28,30.03,14.75,48.21,1015.73,2039.91,3153.17,3014.99,3280.22,600.17,600.77,31.05,0000 0000 0000 0000 000000
2015-10-17 10:54:04,0.02,0.98,0.00,20.49,26.27,30.05,14.84,48.18,1015.73,2039.94,3152.92,3014.58,3280.00,599.92,600.64,31.10,0000 0000 0000 0000 000000
2015-10-17 10:59:06,0.02,0.98,0.00,20.49,26.27,30.04,14.66,48.01,1015.92,2039.95,3152.16,3014.03,3279.80,599.62,600.33,31.15,0000 0000 0000 0000 000000
2015-10-17 11:04:07,0.01,0.99,0.00,20.49,26.27,30.05,14.82,48.13,1015.83,2039.96,3151.90,3013.97,3279.09,600.22,600.92,31.20,0000 0000 0000 0000 000000
2015-10-17 11:09:08,0.03,0.99,0.00,20.49,26.27,30.06,14.74,48.01,1015.74,2039.96,3151.10,3013.36,3278.99,600.13,600.65,31.25,0000 0000 0000 0000 000000
2015-10-17 11:14:09,0.01,0.99,0.00,20.48,26.26,30.05,14.84,48.15,1015.70,2039.96,3150.89,3013.02,3278.54,600.13,600.83,31.30,0000 0000 0000 0000 000000
2015-10-17 11:19:11,0.01,0.99,0.00,20.47,26.25,30.06,14.78,48.18,1015.67,2039.97,3150.11,3012.98,3278.01,599.78,600.39,31.35,0000 0000 0000 0000 000000
2015-10-17 11:24:12,0.02,0.99,0.00,20.47,26.25,30.05,14.72,48.13,1015.73,2039.97,3149.90,3012.41,3277.93,599.74,600.39,31.40,0000 0000 0000 0000 000000
2015-10-17 11:29:14,0.03,0.99,0.00,20.47,26.25,30.01,14.71,48.10,1015.69,2039.98,3149.17,3012.03,3277.30,599.98,600.64,31.45,0000 0000 0000 0000 000000
2015-10-17 11:34:15,0.01,0.99,0.00,20.47,26.25,30.00,14.88,48.23,1015.70,2039.98,3148.53,3011.82,3276.98,600.38,601.01,31.50,0000 0000 0000 0000 000000
2015-10-17 11:39:16,0.04,1.00,0.00,20.47,26.24,30.01,14.84,48.17,1015.71,2039.99,3147.90,3011.06,3276.33,600.01,600.62,31.55,0000 0000 0000 0000 000000
2015-10-17 11:44:18,0.02,1.00,0.00,20.47,26.22,29.96,14.86,48.20,1015.66,2039.99,3147.07,3010.81,3275.98,600.14,600.71,31.60,0000 0000 0000 0000 000000
2015-10-17 11:49:19,0.05,1.00,0.00,20.47,26.22,30.03,14.68,48.20,1015.66,2039.98,3146.30,3010.06,3275.23,599.76,600.36,31.65,0000 0000 0000 0000 000000
2015-10-17 11:54:20,0.01,1.00,0.00,20.47,26.22,30.02,14.76,48.18,1015.66,2039.99,3145.73,3009.86,3274.97,599.94,600.54,31.70,0000 0000 0000 0000 000000
2015-10-17 11:59:21,0.04,1.00,0.00,20.47,26.21,29.99,14.78,48.18,1015.65,2039.99,3145.03,3009.17,3274.35,600.06,600.67,31.75,0000 0000 0000 0000 000000
2015-10-17 12:04:23,0.01,1.00,0.00,20.45,26.20,30.02,14.76,48.19,1015.65,2039.99,3144.60,3009.00,3274.00,600.12,600.83,31.80,0000 0000 0000 0000 000000
2015-10-17 12:09:24,0.02,1.00,0.00,20.44,26.20,30.01,14.82,48.07,1015.68,2039.99,3143.99,3008.71,3273.69,599.88,600.63,31.85,0000 0000 0000 0000 000000
2015-10-17 12:14:25,0.03,1.01,0.00,20.44,26.20,29.96,14.78,48.14,1015.68,2039.99,3143.27,3008.04,3273.04,600.01,600.68,31.90,0000 0000 0000 0000 000000
2015-10-17 12:19:27,0.00,1.01,0.00,20.44,26.20,29.96,14.71,48.13,1015.66,2039.99,3142.89,3007.99,3272.94,599.98,600.68,31.95,0000 0000 0000 0000 000000
2015-10-17 12:24:28,0.04,1.01,0.00,20.44,26.19,29.98,14.80,48.19,1015.65,2039.99,3142.08,3007.57,3272.22,600.00,600.53,32.00,0000 0000 0000 0000 000000
2015-10-17 12:29:30,0.01,1.01,0.00,20.45,26.17,29.97,14.84,48.30,1015.64,2039.99,3141.66,3007.02,3271.99,600.00,600.59,32.05,0000 0000 0000 0000 000000
2015-10-17 12:34:31,0.02,1.01,0.00,20.45,26.17,29.99,14.79,48.17,1015.65,2039.99,3141.02,3006.94,3271.49,600.13,600.80,32.10,0000 0000 0000 0000 000000
2015-10-17 12:39:33,0.04,1.01,0.00,20.44,26.17,29.96,14.67,48.09,1015.65,2039.99,3140.43,3006.29,3271.01,599.70,600.38,32.15,0000 0000 0000 0000 000000
2015-10-17 12:44:34,0.01,1.01,0.00,20.44,26.17,29.95,14.70,48.23,1015.66,2039.99,3139.99,3006.00,3270.78,599.91,600.51,32.20,0000 0000 0000 0000 000000
2015-10-17 12:49:35,0.03,1.02,0.00,20.44,26.17,29.94,14.78,48.26,1015.64,2040.00,3139.29,3005.90,3270.09,600.09,600.68,32.25,0000 0000 0000 0000 000000
2015-10-17 12:54:37,0.02,1.02,0.00,20.44,26.17,29.96,14.78,48.14,1015.64,2040.05,3138.96,3005.28,3269.97,600.24,600.87,32.30,0000 0000 0000 0000 000000